Floriano, Brazil
Current Conditions -  °F | °C
As of 2:00 AM on Tuesday 21 Oct 2014 (Local Time) from SBMO Reporting Station
Clear Clear  
Wind Chill: 68°   Ceiling: Unl
Heat Index: 68°   Visibility: 6mi
Dew Point: 68°   Wind: 3mph
Humidity: 100%   Direction: 340°NNW
Pressure: 29.88"   Gusts: NA
Location:  9.42°S, 35.83°W
Report Text: SBMO 210500Z 34003KT CAVOK 20/20 Q1012
Loading
Personal Weather Stations






























Interactive Weather Map
Tropical Storm Tracking
New forecast layout! Learn more

10-Day Weather Forecast

Advertisements
Track Severe Weather on mobile